www.pogodaiklimat.ru

Погода и климат >> Архив погоды >> Венгрия >> Debrecen


ПОГОДА в Debrecen

  • Прогноз погоды в Debrecen
  • Монитор погоды в Debrecen
  • Климат города

АРХИВ ПОГОДЫ в Debrecen

Время (UTC), дата Ветер
(напр.,м/с)
 
Видим.   Явления Облачность Т
(С)
Тd
(С)
f
(%)
Тe
(С)
Тes
(С)
Комфортность P
(гПа)
Po
(гПа)
Тmin
(С)
Tmax
(С)
R
(мм)
R24
(мм)
S
(см)
22 6.12 Ю 1 4500 м дымка 10/0
[Ac As]
-1.4 -3.9 83 -3 -3 1025.8 1012.0
23 6.12 штиль 0 4800 м дымка 10/6 2000 м
[Sc Ac As]
-0.8 -3.5 82 -2 -2 1026.4 1012.6
00 7.12 Ю 1 н/о н/о -0.8 -2.7 87 -3 -3 1026.0 1012.2
02 7.12 Ю 2 н/о н/о -0.6 -2.5 87 -4 -4 1025.5 1011.7
01 7.12 Ю 1 н/о н/о -0.8 -3.0 85 -3 -3 1025.9 1012.1
03 7.12 Ю 1 н/о н/о -0.5 -2.5 86 -3 -3 1025.0 1011.2
04 7.12 ЮВ 2 13 км 10/10 1300 м
[Sc]
-0.4 -2.8 84 -4 -4 1025.1 1011.3
05 7.12 Ю 2 12 км 10/10 1200 м
[Sc]
-0.6 -3.0 84 -4 -4 1024.7 1010.9
06 7.12 Ю 3 12 км 10/10 1200 м
[Sc]
-0.5 -2.9 84 -5 -5 1024.1 1010.4 -2.8
08 7.12 Ю 4 15 км в посл. час переохл. осадки 10/10 1000 м
[Sc]
0.0 -2.9 81 -5 -5 1023.2 1009.5
07 7.12 Ю 3 13 км 10/10 1000 м
[Sc]
-0.3 -2.8 83 -5 -5 1023.6 1009.9
09 7.12 Ю 3 15 км {дождь} 10/10 700 м
[Sc]
+0.1 -2.9 80 -4 -4 1023.9 1010.2
10 7.12 Ю 4 15 км 10/10 800 м
[Sc]
+0.5 -2.9 78 -5 -5 1023.0 1009.3
11 7.12 Ю 4 15 км 10/10 700 м
[Sc]
+0.7 -2.7 78 -4 -4 1022.4 1008.7
12 7.12 Ю 4 15 км {дождь} 10/10 600 м
[Sc]
+0.9 -2.7 77 -4 -4 1021.4 1007.8
14 7.12 Ю 4 14 км 10/10 800 м
[Sc]
+0.9 -2.3 79 -4 -4 1020.2 1006.6
13 7.12 Ю 3 14 км 10/10 700 м
[Sc]
+0.9 -2.7 77 -3 -3 1021.1 1007.5
15 7.12 Ю 4 13 км в посл. час дождь {морось} 10/10 800 м
[Sc]
+0.7 -1.7 84 -5 -5 1019.5 1005.9
16 7.12 Ю 4 15 км дождь 10/0 600 м
[As op]
+1.0 -2.6 77 -4 -4 1018.9 1005.3
17 7.12 ЮВ 3 15 км в посл. час дождь {морось} 10/0 1300 м
[As op]
+1.3 -2.5 76 -3 -3 1018.5 1004.9
18 7.12 ЮВ 4 15 км {дождь, морось} 10/0 900 м
[As op]
+1.5 -2.3 76 -3 -3 1017.9 1004.3 +1.5
21 7.12 В 3 13 км 9/0
[Ac As Ci sp]
+1.4 -2.9 73 -3 -3 1015.3 1001.8
00 8.12 В 3 12 км 9/0
[Ac As Ci sp]
+0.3 -1.9 85 -4 -4 1013.1 999.5
02 8.12 В 2 н/о н/о +0.4 -1.7 86 -3 -3 1011.9 998.4
01 8.12 В 3 н/о н/о +0.3 -1.8 86 -4 -4 1012.7 999.1
03 8.12 В 3 н/о н/о +0.4 -1.5 87 -4 -4 1011.1 997.6
04 8.12 В 2 15 км 10/0
[Ac As]
+1.1 -1.1 85 -2 -2 1010.5 997.0
05 8.12 В 2 15 км 10/0
[Ac As]
+1.4 -1.3 82 -2 -2 1009.9 996.4
06 8.12 ЮВ 2 10 км слабый дождь 10/6 1000 м
[Sc Ac As]
+2.4 -1.0 78 -1 -1 1009.7 996.3 +0.2
08 8.12 З 1 8000 м слабый дождь 10/0 800 м
[As op]
+2.2 -0.5 82 +1 +1 1010.4 997.0
07 8.12 штиль 0 8000 м слабый дождь 10/0 900 м
[As op]
+2.1 -0.6 82 +1 +1 1010.0 996.6
09 8.12 Ю 1 8000 м слабый дождь 10/0 800 м
[As op]
+2.1 -0.5 83 0 +1 1010.3 996.9
10 8.12 Ю 2 6000 м дождь 10/0 700 м
[As op]
+2.0 +0.1 87 -1 -1 1010.3 996.9
11 8.12 З 2 2800 м дождь {морось} 10/9 150 м
[Frnb As op]
+2.1 +0.6 90 -1 -1 1010.4 997.0
12 8.12 С 1 4500 м в посл. час морось {дождь} 10/3 120 м
[Frnb As op]
+1.9 +0.4 90 0 0 1010.2 996.8 2
14 8.12 СЗ 2 3500 м слабый дождь 10/9 120 м
[Frnb As op]
+2.1 +0.5 89 -1 -1 1010.9 997.5
13 8.12 С 1 4200 м слабый дождь 10/9 120 м
[Frnb]
+2.1 +0.5 89 0 0 1010.7 997.3
15 8.12 СЗ 2 3400 м в посл. час дождь 10/9 180 м
[Frnb As op]
+1.8 +0.2 89 -2 -2 1011.6 998.1
16 8.12 СЗ 2 4800 м дымка 10/10 150 м
[St]
+1.7 +0.1 89 -2 -2 1012.1 998.6
17 8.12 СВ 3 4800 м слабый дождь 10/10 150 м
[Sc]
+1.5 -0.1 89 -3 -3 1012.2 998.7
18 8.12 СЗ 1 н/о н/о +1.6 +0.1 90 -0 -0 1012.3 998.8 +2.4 2
20 8.12 ЮЗ 1 н/о н/о +0.8 -0.5 91 -1 -1 1013.0 999.5
19 8.12 З 2 н/о н/о +1.2 -0.3 90 -2 -2 1012.8 999.3
21 8.12 ЮЗ 2 н/о н/о +0.1 -1.0 92 -4 -4 1012.9 999.3
22 8.12 Ю 2 н/о н/о 0.0 -1.0 93 -4 -4 1012.8 999.2
23 8.12 Ю 3 н/о н/о -0.2 -1.0 94 -5 -5 1012.8 999.2
00 9.12 Ю 4 н/о н/о 0.0 -0.7 95 -6 -6 1012.7 999.1
02 9.12 Ю 5
{6}
н/о н/о +0.6 -0.1 95 -6 -6 1011.7 998.2
01 9.12 Ю 4 н/о н/о -0.1 -0.8 95 -6 -6 1012.4 998.8
03 9.12 Ю 5 н/о н/о +0.7 +0.1 96 -5 -5 1011.2 997.7
04 9.12 Ю 5
{6}
2100 м дымка 10/10 60 м
[St]
+1.3 +0.7 96 -5 -5 1010.7 997.2
05 9.12 Ю 6 2600 м дымка 10/10 60 м
[St]
+1.6 +1.0 96 -5 -5 1010.1 996.6
06 9.12 Ю 6
{9}
2700 м дымка 10/10 90 м
[St]
+1.8 +1.2 96 -5 -5 1009.5 996.1 -0.4
08 9.12 Ю 7
{11}
4500 м дымка 3/0
[Ac cast]
+3.0 +2.1 94 -3 -3 1008.5 995.1
07 9.12 Ю 6
{9}
2800 м дымка 9/0
[Ac As]
+2.0 +1.4 96 -4 -4 1009.3 995.9
09 9.12 Ю 8 10 км 4/0
[Ac cast]
+4.8 +2.5 85 -1 -1 1007.9 994.6
10 9.12 Ю 8
{13}
13 км 5/0
[Ac As]
+6.0 +2.8 80 +1 +1 1007.0 993.8
11 9.12 Ю 9
{13}
13 км 9/0
[Ac As]
+5.9 +2.5 79 0 0 1006.0 992.8
12 9.12 Ю 9
{14}
15 км 9/0
[Ac As]
+7.0 +2.7 74 +2 +2 1005.6 992.5
14 9.12 Ю 6 15 км 9/9 1500 м
[Sc]
+6.5 +2.9 78 +2 +2 1004.6 991.4
13 9.12 Ю 8
{13}
15 км 9/0
[Ac As]
+6.7 +2.4 74 +2 +2 1004.7 991.6
15 9.12 ЮЗ 6
{12}
15 км слабый дождь 10/10 1000 м
[Sc]
+5.6 +2.4 80 +1 +1 1004.8 991.6
16 9.12 ЮЗ 6
{7}
15 км в посл. час дождь 9/9 1080 м
[Sc]
+5.4 +2.6 82 0 0 1004.6 991.4
17 9.12 ЮЗ 5
{9}
15 км 9/5 1500 м
[Sc Ac As]
+5.3 +2.8 84 +1 +1 1004.4 991.2
18 9.12 Ю 4 13 км {дождь} 9/9 1380 м
[Sc]
+4.9 +2.8 86 +1 +1 1004.5 991.3 +7.4 0.2
20 9.12 Ю 4 15 км 10/10 1500 м
[Sc]
+4.7 +2.7 87 0 0 1005.3 992.1
19 9.12 Ю 2 13 км 9/9 1500 м
[Sc]
+4.5 +2.5 87 +2 +2 1004.7 991.5
21 9.12 Ю 3 12 км 9/9 1300 м
[Sc]
+4.5 +2.7 88 +1 +1 1005.4 992.1
22 9.12 Ю 4 12 км 9/9 1500 м
[Sc]
+4.2 +2.6 89 -0 -0 1005.3 992.0
23 9.12 ЮЗ 4 12 км 9/0
[Ac As]
+3.5 +1.9 89 -1 -1 1005.2 991.9
00 10.12 Ю 2 н/о н/о +2.3 +0.8 90 -1 -1 1005.4 992.0
02 10.12 Ю 2 н/о н/о +1.4 +0.2 92 -2 -2 1005.7 992.3
01 10.12 Ю 2 н/о н/о +1.6 +0.3 91 -2 -2 1005.6 992.2
03 10.12 Ю 2 н/о н/о +1.1 -0.1 92 -2 -2 1005.7 992.3
04 10.12 Ю 3 10 км 9/0
[Ac cast Ci sp]
+1.5 +0.3 92 -3 -3 1005.5 992.1
05 10.12 ЮЗ 2 13 км 5/0
[Ac cast Ci sp]
+1.1 -0.2 91 -2 -2 1005.7 992.3
06 10.12 ЮЗ 3 10 км 9/0
[Ac As]
+1.8 +0.5 91 -3 -3 1005.8 992.4 +0.6
08 10.12 З 1 20 км 9/0
[Ac lent Cs]
+3.6 +1.8 88 +2 +3 1006.6 993.3
07 10.12 ЮЗ 3 17 км 9/9 2000 м
[Sc]
+2.8 +1.3 90 -1 -1 1006.1 992.8
09 10.12 З 3 20 км 9/1 300 м
[Cu hum Ac cast Ci sp]
+4.7 +2.1 83 +1 +2 1007.2 993.9
10 10.12 СЗ 3 25 км 9/1 400 м
[Cu Sc Ac cast Ci sp]
+6.3 +2.9 79 +3 +4 1007.4 994.2
11 10.12 СЗ 3 20 км слабый ливневой дождь 9/9 400 м
[Cu Sc]
+6.4 +2.8 78 +3 +4 1007.7 994.5
12 10.12 СЗ 2 20 км слабый ливневой дождь 9/9 480 м
[Cu Sc]
+6.2 +2.5 77 +4 +4 1008.4 995.2
14 10.12 З 2 15 км слабый дождь {ливн. осадки} 10/3 600 м
[Cu med, cong As op]
+4.8 +2.5 85 +2 +2 1010.0 996.7
13 10.12 СЗ 3 5000 м слабый ливневой дождь 10/10 600 м
[Cu med, cong]
+5.4 +2.4 81 +2 +2 1009.3 996.0
15 10.12 СВ 5
{6}
10 км слабый дождь {ливн. осадки} 9/9 1000 м
[Sc]
+4.4 +2.3 86 -1 -1 1010.2 996.9
16 10.12 СВ 2
{7}
15 км слабый ливневой дождь 9/6 1000 м
[Sc Ac cast]
+3.8 +1.7 86 +1 +1 1011.1 997.7
17 10.12 СЗ 2 10 км слабый ливневой дождь 10/6 1000 м
[Cu med, cong Ac cast]
+3.7 +1.4 85 +1 +1 1011.3 997.9
18 10.12 ЮВ 1 20 км в посл. час ливневой дождь 9/9 1200 м
[Cu Sc]
+3.3 +0.9 84 +2 +2 1011.4 998.0 +6.8 3
20 10.12 ЮЗ 3 18 км в посл. час ливневой дождь 5/5 800 м
[Cu Sc]
+1.5 -0.1 89 -3 -3 1012.2 998.7
19 10.12 З 3 15 км слабый ливневой дождь 9/9 800 м
[Cu Sc]
+3.3 +1.2 86 -1 -1 1012.0 998.6
21 10.12 ЮЗ 2 20 км {ливн. осадки} 1/1 1500 м
[Sc]
+0.5 -0.9 90 -3 -3 1012.2 998.7
22 10.12 ЮВ 2 20 км 3/0
[Ac cast Ci sp]
-0.2 -1.5 91 -4 -4 1012.6 999.0
23 10.12 Ю 3 25 км 8/1 1500 м
[Sc Ac cast Ci sp]
0.0 -1.1 92 -5 -5 1012.4 998.8
00 11.12 ЮВ 2 25 км {ливн. осадки} 5/0
[Ac cast]
-0.2 -1.3 92 -4 -4 1012.2 998.6
02 11.12 Ю 1 н/о н/о -0.1 -1.1 93 -2 -2 1012.5 998.9
01 11.12 ЮВ 1 н/о н/о -0.6 -1.7 92 -3 -3 1012.6 999.0
03 11.12 ЮЗ 2 н/о н/о -0.4 -1.4 93 -4 -4 1012.7 999.1
04 11.12 СВ 1 5000 м слабый снег 9/6 800 м
[Sc Ac As]
-0.3 -1.3 93 -2 -2 1012.9 999.3
05 11.12 З 2 4900 м в посл. час снег 5/5 1000 м
[Sc]
+0.3 -0.5 94 -3 -3 1013.2 999.6
06 11.12 ЮЗ 2 3800 м дымка {снег} 1/1 1500 м
[Sc]
-1.2 -2.2 93 -5 -5 1013.7 1000.1 1
08 11.12 Ю 1 500 м туман 10/10 150 м
[St]
-0.2 -1.0 94 -2 -2 1014.4 1000.8
07 11.12 З 1 400 м туман 5/5 120 м
[St]
-1.9 -2.9 93 -4 -4 1014.2 1000.5
09 11.12 ЮВ 2 400 м туман 10/10 90 м
[St]
-0.2 -1.0 94 -4 -4 1014.8 1001.2
10 11.12 Ю 1 300 м туман 10/10 90 м
[St]
-0.7 -1.4 95 -3 -3 1014.8 1001.2
11 11.12 Ю 3 300 м туман 10/10 90 м
[St]
-0.5 -1.2 95 -5 -5 1014.5 1000.9
12 11.12 Ю 3 3200 м в посл. час туман 9/9 100 м
[St]
+0.1 -0.6 95 -5 -5 1014.4 1000.8
14 11.12 ЮЗ 5
{6}
12 км 9/9 480 м
[Sc]
+2.6 +0.8 88 -3 -3 1014.7 1001.2
13 11.12 Ю 2 7000 м 8/8 180 м
[Sc]
+1.7 +1.0 95 -2 -2 1014.3 1000.8
15 11.12 Ю 3 12 км 9/9 600 м
[Sc]
+2.5 +0.2 85 -2 -2 1015.0 1001.5
16 11.12 Ю 2 10 км 9/9 600 м
[Sc]
+2.3 +0.4 87 -1 -1 1015.1 1001.6
17 11.12 ЮЗ 3 12 км 9/9 700 м
[Sc]
+2.2 +0.3 87 -2 -2 1015.3 1001.8
18 11.12 Ю 2 10 км 10/10 1000 м
[Sc]
+1.7 +0.1 89 -2 -2 1015.5 1002.0 +3.1
20 11.12 Ю 3 10 км 10/10 1200 м
[Sc]
+1.4 -0.1 90 -3 -3 1015.4 1001.9
19 11.12 ЮЗ 3 10 км 10/10 1200 м
[Sc]
+1.5 -0.1 89 -3 -3 1015.6 1002.1
21 11.12 ЮЗ 4 3000 м слабый снег 10/10 400 м
[Sc]
+0.8 -0.6 90 -5 -5 1015.3 1001.7
22 11.12 Ю 3 5000 м в посл. час снег 10/10 180 м
[Sc]
+1.2 +0.2 93 -3 -3 1015.3 1001.8
23 11.12 Ю 3 7000 м 10/10 180 м
[Sc]
+1.7 +0.7 93 -3 -3 1015.1 1001.6
00 12.12 Ю 3 7000 м 10/10 150 м
[Sc]
+1.3 +0.3 93 -3 -3 1015.0 1001.5 0.8
02 12.12 Ю 3 6000 м слабый дождь 10/10 90 м
[St]
+1.4 +0.4 93 -3 -3 1015.0 1001.5
01 12.12 Ю 3 6000 м 10/10 90 м
[St]
+1.3 +0.3 93 -3 -3 1015.2 1001.7
03 12.12 Ю 2 6000 м слабый дождь 10/10 90 м
[St]
+1.2 +0.2 93 -2 -2 1015.0 1001.5
04 12.12 ЮВ 2 6000 м слабый дождь 10/10 90 м
[St]
+1.1 +0.1 93 -2 -2 1015.0 1001.5
05 12.12 Ю 2 3500 м слабый снег {дождь} 10/10 90 м
[Sc]
+0.7 -0.3 93 -3 -3 1015.4 1001.8
06 12.12 В 1 3500 м слабый дождь со снегом 10/10 90 м
[Sc]
+0.5 -0.4 94 -2 -2 1015.8 1002.2 +0.5 1
08 12.12 В 2 4800 м в посл. час морось 10/10 120 м
[St]
+0.9 0.0 94 -3 -3 1016.6 1003.0
07 12.12 В 1 3300 м слабая морось {снег, дождь} 10/10 60 м
[St]
+0.6 -0.3 94 -1 -1 1016.2 1002.6
09 12.12 СВ 1 7000 м в посл. час снег {дождь} 10/10 150 м
[St]
+1.3 +0.3 93 -1 -1 1017.3 1003.7
10 12.12 СВ 3 20 км 10/10 180 м
[Sc]
+1.7 +0.2 90 -3 -3 1017.5 1003.9
11 12.12 СВ 2 13 км 9/9 210 м
[Sc]
+2.1 +0.3 88 -1 -1 1017.4 1003.9
12 12.12 СВ 3 15 км {снег, дождь} 9/9 270 м
[Sc]
+2.6 +0.3 85 -2 -1 1017.6 1004.1
14 12.12 С 2 13 км 9/9 700 м
[Sc]
+2.5 +0.2 85 -1 -1 1018.5 1005.0
13 12.12 СВ 3 15 км 10/10 600 м
[Sc]
+2.9 +0.3 83 -1 -1 1017.9 1004.4
15 12.12 СВ 4 13 км 10/10 300 м
[Sc]
+1.6 -0.3 87 -4 -4 1019.1 1005.5
16 12.12 С 3 13 км 10/8 240 м
[Sc As op]
+1.6 -0.5 86 -3 -3 1019.4 1005.8
17 12.12 С 2 15 км 10/8 900 м
[Sc As op]
+1.6 -0.5 86 -2 -2 1019.6 1006.0
18 12.12 С 1 12 км 4/4 1000 м
[Sc]
+1.3 -0.6 87 -1 -1 1020.1 1006.5 +2.9
20 12.12 СЗ 2 10 км 9/0
[Ac As]
+0.8 -0.6 90 -3 -3 1020.5 1006.9
19 12.12 СЗ 1 12 км 10/5 800 м
[Sc As op]
+1.2 -0.6 88 -1 -1 1020.3 1006.7
21 12.12 СЗ 2 10 км 9/0
[Ac As]
+0.7 -0.7 90 -3 -3 1020.8 1007.2
22 12.12 СЗ 2 10 км 9/0
[Ac As]
+0.3 -1.1 90 -3 -3 1021.2 1007.5
23 12.12 СЗ 2 8000 м 9/9 1500 м
[Sc]
+0.3 -1.0 91 -3 -3 1021.4 1007.7
00 13.12 СЗ 2 н/о н/о +0.1 -1.5 89 -4 -4 1021.3 1007.6
02 13.12 СЗ 2 н/о н/о -0.8 -2.4 89 -5 -5 1021.5 1007.8
01 13.12 С 2 н/о н/о -0.7 -2.4 88 -4 -4 1021.5 1007.8
03 13.12 З 2 н/о н/о -0.9 -2.5 89 -5 -5 1021.7 1008.0
04 13.12 СЗ 2 5000 м дымка 9/0
[Ac As]
-1.1 -2.7 89 -5 -5 1021.5 1007.8
05 13.12 СЗ 1 5000 м дымка 10/0
[Ac As]
-1.2 -2.6 90 -3 -3 1021.5 1007.8
06 13.12 З 1 4800 м дымка 9/0
[Ac As]
-1.2 -2.6 90 -3 -3 1021.7 1007.9 -1.7
08 13.12 СЗ 1 4800 м дымка 1/0
[Ac lent]
-0.6 -2.3 88 -3 -2 1022.0 1008.3
07 13.12 З 2 2800 м дымка 9/0
[Ac As]
-1.3 -2.6 91 -5 -5 1021.9 1008.1
09 13.12 С 1 6000 м 1/0
[Ac lent]
+1.3 -2.1 78 -0 +1 1022.0 1008.4
10 13.12 СЗ 1 10 км 9/1 1300 м
[Sc Ac As]
+2.0 -2.5 72 +1 +2 1021.8 1008.2
11 13.12 СЗ 3 12 км 9/6 700 м
[Cu Sc Ci sp]
+2.7 -2.4 69 -1 -0 1021.5 1007.9
12 13.12 З 3 12 км 9/9 600 м
[Cu Sc]
+2.2 -1.6 76 -2 -2 1021.6 1008.0
14 13.12 С 2 12 км 9/9 480 м
[Cu Sc]
+2.2 -1.9 74 -1 -1 1021.4 1007.8
13 13.12 СЗ 2 12 км 9/9 480 м
[Cu Sc]
+2.3 -1.0 79 -1 -1 1021.3 1007.7
15 13.12 СЗ 1 10 км 9/9 1000 м
[Sc]
+2.0 -1.8 76 +1 +1 1021.4 1007.8
16 13.12 штиль 0 8000 м 4/4 1080 м
[Sc]
+0.4 -2.8 79 -1 -1 1021.4 1007.7
17 13.12 штиль 0 7000 м 1/1 1080 м
[Sc]
-1.1 -3.3 85 -2 -2 1021.4 1007.7
18 13.12 С 1 6000 м ясно -2.0 -3.6 89 -4 -4 1021.6 1007.8 +2.7
20 13.12 Ю 1 300 м туман 9/9 90 м
[Sc]
-3.0 -4.3 91 -5 -5 1022.2 1008.4
19 13.12 ЮЗ 1 300 м туман ясно -2.2 -3.5 91 -5 -5 1021.9 1008.1
21 13.12 ЮЗ 1 1200 м в посл. час туман 10/10 900 м
[Sc]
-2.3 -3.4 92 -5 -5 1022.3 1008.5
22 13.12 С 1 1600 м дымка 3/3 1000 м
[Sc]
-3.4 -4.5 92 -6 -6 1022.3 1008.4

 

Местоположение метеостанции Debrecen (Венгрия): широта 47.48 долгота 21.60 высота над уровнем моря 109 м.

В архиве по умолчанию представлена погода в Debrecen за последнюю неделю. Архивные данные за месяц целиком и за предыдущие месяцы, начиная с января 2011 года, Вы можете получить, выбрав интересующий диапазон дат из раскрывающегося списка и нажав кнопку "Ввод!".


*Определитесь, кто Вы:
робот инопланетянин человек

Внимание! Время в таблицах - всемирное. Для получения местного времени необходимо прибавить поправку, которая в Debrecen равна 1 ч.

Смотрите также архив погоды в соседних городах и на ближайших метеорологических станциях:

Погода в Sacuieni (Румыния) (40 км)
Погода в Oradea (Румыния) (55 км)
Погода в Nyiregyhaza (Венгрия) (58 км)
Погода в Poroszlo (Венгрия) (75 км)
Погода в Holod (Румыния) (87 км)
Погода в Supuru De Jos (Румыния) (89 км)
Погода в Miskolc (Венгрия) (93 км)
Погода в Borod (Румыния) (94 км)
Погода в Bekescsaba (Венгрия) (95 км)
Погода в Satu Mare (Румыния) (100 км)

Пояснения к столбцам:

Ветер - указаны скорость ветра в м/с - средняя за 10 мин, порывы в срок и между сроками (в фигурных скобках) и направление, откуда дует ветер: С - северный, СВ - северо-восточный, В - восточный, ЮВ - юго-восточный, Ю - южный, ЮЗ - юго-западный, З - западный, СЗ - северо-западный.
Видимость - горизонтальная дальность видимости в метрах или километрах. При видимости от 1 до 10 км при отсутствии осадков обычно наблюдается дымка, при ухудшении видимости до 1 км и менее - туман. В сухую погоду видимость может ухудшаться дымом, пылью или мглою.
Явления - указаны атмосферные явления, наблюдавшиеся в срок или в последний час перед сроком; фигурными скобками обозначены явления, наблюдавшиеся между сроками (за 1-3 часа до срока); квадратными скобками обозначены град или гололедные отложения с указанием их диаметра в мм.
Облачность - указаны через наклонную черту общая и нижняя облачность в баллах и высота нижней границы облаков в метрах; квадратными скобками обозначены формы облаков: Ci - перистые, Cs - перисто-слоистые, Cc - перисто-кучевые, Ac - высококучевые, As - высокослоистые, Sc - слоисто-кучевые, Ns - слоисто-дождевые, Cu - кучевые, Cb - кучево-дождевые. Подробнее классификацию облаков см. в Атласе облаков (PDF).
T - Температура воздуха - температура, измеренная на высоте 2 м над землей.
Td - Температура точки росы - температура, при понижении до которой содержащийся в воздухе водяной пар достигнет насыщения.
f - Относительная влажность воздуха - влажноcть воздуха, измеренная на высоте 2 м над землей.
Te - Эффективная температура - температура, которую ощущает одетый по сезону человек в тени. Характеристика душности погоды. При расчете учитывается влияние влажности воздуха и скорости ветра на теплоощущения человека.
Tes - Эффективная температура на солнце - температура, которую ощущает человек, с поправкой на солнечный нагрев. Характеристика знойности погоды. Зависит от высоты солнца над горизонтом, облачности и скорости ветра. Ночью, в пасмурную погоду, а также при ветре 12 м/с и более поправка равна нулю.
P - Атмосферное давление - приведенное к уровню моря атмосферное давление.
Po - Атмосферное давление - измеренное на уровне метеостанции атмосферное давление.
Tmin - Минимальная температура - минимум температуры воздуха на высоте 2 м над землей.
Tmax - Максимальная температура - максимум температуры воздуха на высоте 2 м над землей.
R - Количество осадков - Количество выпавших осадков за период времени, мм. При наведении курсора мыши на число - период времени, за который выпало указанное количество осадков.
R24 - Количество осадков - Количество выпавших осадков за 24 часа, мм.
S - Снежный покров - Высота снежного покрова, см. При наведении курсора мыши на число - состояние снежного покрова и степень покрытия местности в баллах.